QPF
0.00 0.00 0.00 0.00 0.00 0.00 0.00 0.00 0.00 0.00 0.00 0.00 0.00 0.00 0.00 0.00 0.00 0.00 0.00 0.00 0.00 0.00 0.00 0.00 0.00 0.01 0.01 0.02 0.02 0.02 0.01 0.01 0.01 0.01 0.01 0.00 0.00 0.00 0.00 0.00 0.00 0.00 0.00
0.00 0.00 0.00 0.00 0.00 0.00 0.00 0.00 0.00 0.00 0.00 0.00 0.00 0.00 0.00 0.00 0.00 0.00 0.00 0.00 0.00 0.00 0.00 0.00 0.01 0.01 0.02 0.02 0.03 0.03 0.03 0.02 0.02 0.02 0.02 0.01 0.01 0.00 0.00 0.00 0.00 0.00 0.00
0.00 0.00 0.00 0.00 0.00 0.00 0.00 0.00 0.00 0.00 0.00 0.00 0.00 0.00 0.00 0.00 0.00 0.00 0.00 0.00 0.00 0.00 0.00 0.00 0.00 0.01 0.01 0.02 0.03 0.04 0.05 0.03 0.03 0.02 0.03 0.02 0.01 0.01 0.01 0.01 0.01 0.00 0.00
0.00 0.00 0.00 0.00 0.00 0.00 0.00 0.00 0.00 0.00 0.00 0.00 0.00 0.00 0.00 0.00 0.00 0.00 0.00 0.00 0.00 0.00 0.00 0.00 0.00 0.00 0.01 0.01 0.02 0.03 0.04 0.03 0.03 0.02 0.03 0.03 0.02 0.01 0.01 0.01 0.01 0.01 0.00
0.01 0.00 0.00 0.00 0.00 0.00 0.00 0.00 0.00 0.00 0.00 0.00 0.00 0.00 0.00 0.00 0.00 0.00 0.00 0.00 0.00 0.00 0.00 0.00 0.00 0.00 0.00 0.01 0.01 0.02 0.02 0.02 0.01 0.01 0.02 0.03 0.03 0.03 0.02 0.02 0.01 0.01 0.01
0.03 0.02 0.01 0.01 0.01 0.00 0.00 0.00 0.00 0.00 0.00 0.00 0.00 0.00 0.00 0.00 0.00 0.00 0.00 0.00 0.00 0.00 0.00 0.00 0.00 0.00 0.00 0.01 0.01 0.01 0.01 0.01 0.01 0.00 0.01 0.02 0.03 0.03 0.04 0.05 0.04 0.02 0.02
0.07 0.05 0.04 0.03 0.02 0.02 0.01 0.01 0.01 0.01 0.01 0.00 0.00 0.00 0.00 0.00 0.00 0.00 0.00 0.00 0.00 0.00 0.00 0.00 0.00 0.00 0.00 0.00 0.00 0.01 0.01 0.01 0.01 0.00 0.00 0.00 0.01 0.02 0.04 0.05 0.06 0.06 0.05
0.12 0.09 0.07 0.06 0.04 0.03 0.03 0.02 0.01 0.01 0.01 0.01 0.00 0.00 0.00 0.00 0.00 0.00 0.00 0.00 0.00 0.00 0.00 0.00 0.00 0.00 0.00 0.00 0.00 0.00 0.00 0.00 0.01 0.00 0.00 0.00 0.00 0.01 0.02 0.04 0.06 0.08 0.08
0.21 0.17 0.14 0.12 0.10 0.07 0.05 0.04 0.03 0.03 0.02 0.01 0.00 0.00 0.00 0.00 0.00 0.00 0.00 0.00 0.00 0.00 0.00 0.00 0.00 0.00 0.00 0.00 0.00 0.00 0.00 0.00 0.00 0.00 0.01 0.01 0.01 0.01 0.01 0.02 0.04 0.07 0.08
0.25 0.25 0.23 0.20 0.17 0.13 0.10 0.08 0.06 0.04 0.03 0.01 0.01 0.00 0.00 0.00 0.00 0.00 0.00 0.00 0.00 0.00 0.00 0.00 0.00 0.00 0.00 0.00 0.00 0.01 0.00 0.00 0.00 0.01 0.01 0.01 0.02 0.02 0.02 0.02 0.03 0.05 0.07
0.25 0.25 0.25 0.23 0.22 0.18 0.14 0.12 0.10 0.07 0.04 0.02 0.01 0.01 0.00 0.00 0.00 0.00 0.00 0.00 0.00 0.00 0.00 0.00 0.00 0.00 0.00 0.00 0.00 0.00 0.01 0.01 0.01 0.01 0.02 0.02 0.02 0.01 0.02 0.02 0.02 0.03 0.05
0.29 0.25 0.22 0.21 0.20 0.18 0.16 0.13 0.11 0.08 0.06 0.04 0.03 0.01 0.01 0.01 0.01 0.01 0.01 0.00 0.00 0.00 0.00 0.00 0.00 0.00 0.00 0.00 0.00 0.01 0.01 0.00 0.01 0.02 0.03 0.03 0.01 0.01 0.01 0.01 0.01 0.02 0.03
0.30 0.28 0.23 0.21 0.19 0.16 0.13 0.10 0.07 0.05 0.04 0.03 0.02 0.02 0.01 0.01 0.01 0.01 0.01 0.00 0.00 0.00 0.00 0.00 0.00 0.00 0.00 0.00 0.00 0.01 0.00 0.01 0.01 0.02 0.02 0.02 0.01 0.01 0.01 0.01 0.01 0.01 0.02
0.26 0.26 0.23 0.20 0.19 0.17 0.14 0.10 0.07 0.05 0.03 0.02 0.02 0.01 0.01 0.01 0.00 0.00 0.00 0.00 0.00 0.00 0.00 0.00 0.00 0.00 0.00 0.00 0.00 0.01 0.00 0.01 0.01 0.01 0.01 0.01 0.01 0.01 0.01 0.01 0.01 0.01 0.01
0.16 0.16 0.16 0.15 0.15 0.14 0.12 0.10 0.07 0.05 0.04 0.03 0.02 0.01 0.01 0.00 0.00 0.00 0.00 0.00 0.01 0.00 0.00 0.00 0.00 0.00 0.00 0.00 0.01 0.00 0.00 0.01 0.01 0.01 0.01 0.01 0.01 0.01 0.01 0.00 0.01 0.01 0.01
0.10 0.10 0.10 0.10 0.10 0.09 0.08 0.07 0.05 0.04 0.03 0.02 0.02 0.01 0.00 0.00 0.00 0.00 0.00 0.00 0.00 0.01 0.01 0.00 0.00 0.00 0.00 0.00 0.01 0.00 0.00 0.01 0.01 0.01 0.00 0.00 0.00 0.00 0.00 0.00 0.00 0.01 0.01
0.07 0.06 0.06 0.07 0.06 0.06 0.05 0.04 0.03 0.02 0.02 0.02 0.02 0.01 0.01 0.00 0.00 0.00 0.00 0.00 0.00 0.00 0.00 0.00 0.00 0.00 0.00 0.00 0.00 0.00 0.00 0.00 0.01 0.01 0.00 0.00 0.00 0.00 0.00 0.00 0.00 0.01 0.01
0.05 0.04 0.04 0.04 0.04 0.03 0.03 0.03 0.03 0.02 0.02 0.02 0.02 0.01 0.00 0.00 0.00 0.00 0.00 0.00 0.00 0.00 0.00 0.00 0.00 0.00 0.00 0.00 0.00 0.00 0.00 0.00 0.01 0.01 0.01 0.00 0.00 0.00 0.00 0.00 0.01 0.01 0.01
0.02 0.02 0.03 0.02 0.02 0.02 0.02 0.02 0.02 0.02 0.02 0.02 0.01 0.01 0.00 0.00 0.00 0.00 0.00 0.00 0.00 0.00 0.00 0.00 0.00 0.00 0.00 0.00 0.00 0.00 0.00 0.00 0.00 0.00 0.00 0.00 0.00 0.00 0.00 0.00 0.01 0.01 0.01
0.01 0.01 0.01 0.01 0.01 0.01 0.02 0.02 0.02 0.01 0.01 0.01 0.01 0.01 0.00 0.00 0.00 0.00 0.00 0.00 0.00 0.00 0.00 0.00 0.00 0.00 0.00 0.00 0.00 0.00 0.00 0.00 0.00 0.00 0.00 0.00 0.00 0.00 0.00 0.00 0.00 0.00 0.01
0.01 0.01 0.01 0.01 0.01 0.01 0.01 0.01 0.01 0.01 0.01 0.00 0.00 0.00 0.00 0.00 0.00 0.00 0.00 0.00 0.00 0.00 0.00 0.00 0.00 0.00 0.00 0.00 0.00 0.00 0.00 0.00 0.00 0.00 0.00 0.00 0.00 0.00 0.00 0.00 0.00 0.00 0.00
0.01 0.00 0.00 0.00 0.01 0.01 0.01 0.01 0.01 0.01 0.01 0.00 0.00 0.00 0.00 0.00 0.00 0.00 0.00 0.00 0.00 0.00 0.00 0.00 0.00 0.00 0.00 0.00 0.00 0.00 0.00 0.00 0.00 0.00 0.00 0.00 0.00 0.00 0.00 0.00 0.00 0.00 0.00
0.01 0.01 0.01 0.00 0.00 0.00 0.00 0.00 0.00 0.00 0.00 0.00 0.00 0.00 0.00 0.00 0.00 0.00 0.00 0.00 0.00 0.00 0.00 0.00 0.00 0.00 0.00 0.00 0.00 0.00 0.00 0.00 0.00 0.00 0.00 0.00 0.00 0.00 0.00 0.00 0.00 0.00 0.00
0.00 0.01 0.01 0.00 0.00 0.00 0.00 0.00 0.00 0.00 0.00 0.00 0.00 0.00 0.00 0.00 0.00 0.00 0.00 0.00 0.00 0.00 0.00 0.00 0.00 0.00 0.00 0.00 0.00 0.00 0.00 0.00 0.00 0.00 0.00 0.00 0.00 0.00 0.00 0.00 0.00 0.00 0.00
0.00 0.00 0.01 0.01 0.00 0.00 0.00 0.00 0.00 0.00 0.00 0.00 0.00 0.00 0.00 0.00 0.00 0.00 0.00 0.00 0.00 0.00 0.00 0.00 0.00 0.00 0.00 0.00 0.00 0.00 0.00 0.00 0.00 0.00 0.00 0.00 0.00 0.00 0.00 0.00 0.00 0.00 0.00
0.00 0.00 0.00 0.01 0.00 0.00 0.00 0.00 0.00 0.00 0.00 0.00 0.00 0.00 0.00 0.00 0.00 0.00 0.00 0.00 0.00 0.00 0.00 0.00 0.00 0.00 0.00 0.00 0.00 0.00 0.00 0.00 0.00 0.00 0.00 0.00 0.00 0.00 0.00 0.00 0.00 0.00 0.00
MSLP
1016.89 1017.20 1017.46 1017.68 1017.87 1018.03 1018.17 1018.29 1018.38 1018.45 1018.50 1018.53 1018.55 1018.57 1018.59 1018.62 1018.67 1018.73 1018.82 1018.91 1019.00 1019.07 1019.13 1019.16 1019.16 1019.14 1019.11 1019.09 1019.08 1019.09 1019.12 1019.18 1019.27 1019.36 1019.46 1019.54 1019.62 1019.66 1019.69 1019.69 1019.68 1019.64 1019.60
1016.56 1016.86 1017.14 1017.40 1017.63 1017.83 1018.00 1018.13 1018.23 1018.29 1018.33 1018.34 1018.35 1018.35 1018.36 1018.38 1018.42 1018.48 1018.54 1018.62 1018.69 1018.74 1018.78 1018.80 1018.79 1018.77 1018.74 1018.72 1018.72 1018.73 1018.78 1018.85 1018.95 1019.07 1019.19 1019.30 1019.41 1019.49 1019.56 1019.60 1019.62 1019.63 1019.63
1016.23 1016.53 1016.83 1017.12 1017.40 1017.64 1017.84 1018.00 1018.11 1018.17 1018.20 1018.20 1018.20 1018.19 1018.18 1018.20 1018.22 1018.26 1018.31 1018.36 1018.40 1018.44 1018.45 1018.45 1018.43 1018.40 1018.37 1018.35 1018.34 1018.36 1018.41 1018.50 1018.61 1018.75 1018.89 1019.04 1019.17 1019.29 1019.38 1019.46 1019.52 1019.57 1019.61
1015.94 1016.24 1016.55 1016.87 1017.18 1017.46 1017.69 1017.87 1018.00 1018.08 1018.11 1018.11 1018.10 1018.09 1018.08 1018.09 1018.10 1018.12 1018.15 1018.17 1018.19 1018.20 1018.19 1018.17 1018.13 1018.09 1018.05 1018.02 1018.01 1018.03 1018.08 1018.17 1018.30 1018.45 1018.62 1018.79 1018.95 1019.09 1019.21 1019.30 1019.38 1019.45 1019.52
1015.67 1015.97 1016.30 1016.64 1016.97 1017.28 1017.54 1017.75 1017.89 1017.99 1018.04 1018.06 1018.06 1018.06 1018.06 1018.06 1018.07 1018.08 1018.08 1018.09 1018.08 1018.06 1018.03 1017.99 1017.93 1017.87 1017.82 1017.78 1017.76 1017.78 1017.83 1017.93 1018.07 1018.23 1018.42 1018.60 1018.77 1018.92 1019.04 1019.14 1019.22 1019.29 1019.36
1015.44 1015.74 1016.07 1016.42 1016.76 1017.08 1017.36 1017.59 1017.76 1017.88 1017.96 1018.01 1018.04 1018.06 1018.08 1018.10 1018.11 1018.11 1018.11 1018.09 1018.06 1018.02 1017.97 1017.91 1017.84 1017.77 1017.71 1017.66 1017.64 1017.65 1017.71 1017.81 1017.95 1018.12 1018.31 1018.50 1018.66 1018.80 1018.91 1018.98 1019.02 1019.06 1019.10
1015.22 1015.52 1015.85 1016.20 1016.54 1016.87 1017.15 1017.40 1017.59 1017.74 1017.86 1017.95 1018.02 1018.09 1018.14 1018.18 1018.20 1018.21 1018.20 1018.17 1018.13 1018.07 1018.01 1017.93 1017.86 1017.78 1017.72 1017.67 1017.65 1017.66 1017.72 1017.83 1017.97 1018.14 1018.32 1018.49 1018.64 1018.74 1018.80 1018.82 1018.81 1018.79 1018.78
1014.99 1015.28 1015.61 1015.95 1016.29 1016.61 1016.90 1017.15 1017.37 1017.56 1017.72 1017.86 1017.99 1018.10 1018.20 1018.27 1018.31 1018.33 1018.32 1018.29 1018.24 1018.18 1018.11 1018.04 1017.96 1017.90 1017.84 1017.80 1017.79 1017.82 1017.88 1017.98 1018.12 1018.28 1018.44 1018.58 1018.69 1018.74 1018.74 1018.69 1018.61 1018.51 1018.43
1014.73 1015.03 1015.35 1015.68 1016.01 1016.32 1016.61 1016.87 1017.11 1017.34 1017.55 1017.75 1017.93 1018.10 1018.23 1018.34 1018.40 1018.43 1018.43 1018.40 1018.35 1018.30 1018.24 1018.18 1018.13 1018.09 1018.05 1018.04 1018.05 1018.09 1018.16 1018.26 1018.39 1018.53 1018.66 1018.77 1018.82 1018.81 1018.74 1018.61 1018.45 1018.27 1018.12
1014.44 1014.74 1015.06 1015.39 1015.70 1016.01 1016.29 1016.57 1016.83 1017.09 1017.35 1017.60 1017.84 1018.06 1018.23 1018.37 1018.46 1018.50 1018.50 1018.48 1018.44 1018.40 1018.37 1018.34 1018.33 1018.32 1018.33 1018.35 1018.39 1018.45 1018.53 1018.64 1018.76 1018.88 1018.97 1019.03 1019.03 1018.95 1018.81 1018.61 1018.37 1018.13 1017.91
1014.12 1014.44 1014.76 1015.08 1015.39 1015.68 1015.97 1016.26 1016.55 1016.84 1017.14 1017.44 1017.73 1017.99 1018.20 1018.36 1018.46 1018.52 1018.53 1018.52 1018.50 1018.48 1018.48 1018.50 1018.53 1018.58 1018.64 1018.70 1018.78 1018.87 1018.97 1019.09 1019.19 1019.29 1019.35 1019.36 1019.30 1019.17 1018.97 1018.71 1018.41 1018.11 1017.84
1013.80 1014.12 1014.45 1014.77 1015.07 1015.37 1015.67 1015.97 1016.28 1016.61 1016.95 1017.29 1017.61 1017.90 1018.13 1018.31 1018.43 1018.49 1018.51 1018.52 1018.52 1018.54 1018.58 1018.64 1018.73 1018.84 1018.96 1019.08 1019.20 1019.33 1019.45 1019.56 1019.66 1019.74 1019.77 1019.74 1019.64 1019.47 1019.22 1018.92 1018.59 1018.25 1017.94
1013.49 1013.82 1014.15 1014.47 1014.78 1015.09 1015.39 1015.71 1016.05 1016.40 1016.77 1017.14 1017.49 1017.80 1018.06 1018.25 1018.37 1018.44 1018.48 1018.50 1018.53 1018.58 1018.67 1018.79 1018.93 1019.10 1019.27 1019.45 1019.62 1019.77 1019.91 1020.04 1020.13 1020.19 1020.20 1020.15 1020.02 1019.82 1019.55 1019.23 1018.88 1018.52 1018.18
1013.21 1013.54 1013.88 1014.21 1014.53 1014.84 1015.16 1015.50 1015.86 1016.24 1016.64 1017.03 1017.40 1017.73 1017.99 1018.19 1018.32 1018.40 1018.45 1018.50 1018.55 1018.64 1018.77 1018.93 1019.13 1019.35 1019.57 1019.79 1020.00 1020.18 1020.35 1020.48 1020.57 1020.62 1020.61 1020.55 1020.41 1020.20 1019.93 1019.60 1019.25 1018.89 1018.53
1012.97 1013.30 1013.65 1013.99 1014.32 1014.66 1014.99 1015.35 1015.73 1016.13 1016.55 1016.95 1017.34 1017.68 1017.95 1018.16 1018.30 1018.40 1018.46 1018.53 1018.61 1018.73 1018.88 1019.08 1019.32 1019.57 1019.83 1020.09 1020.32 1020.53 1020.70 1020.84 1020.94 1020.98 1020.98 1020.90 1020.77 1020.57 1020.31 1020.00 1019.66 1019.30 1018.94
1012.78 1013.13 1013.48 1013.83 1014.18 1014.53 1014.89 1015.26 1015.66 1016.08 1016.50 1016.93 1017.32 1017.67 1017.95 1018.17 1018.33 1018.44 1018.52 1018.61 1018.71 1018.84 1019.02 1019.24 1019.49 1019.76 1020.04 1020.31 1020.55 1020.77 1020.96 1021.10 1021.20 1021.25 1021.25 1021.19 1021.07 1020.88 1020.65 1020.37 1020.05 1019.71 1019.35
1012.67 1013.01 1013.38 1013.75 1014.11 1014.48 1014.86 1015.25 1015.66 1016.08 1016.52 1016.95 1017.35 1017.70 1018.00 1018.23 1018.41 1018.53 1018.64 1018.74 1018.85 1018.99 1019.17 1019.39 1019.64 1019.90 1020.17 1020.43 1020.68 1020.89 1021.08 1021.23 1021.34 1021.40 1021.41 1021.37 1021.27 1021.12 1020.91 1020.67 1020.38 1020.06 1019.72
1012.62 1012.97 1013.35 1013.74 1014.12 1014.51 1014.90 1015.30 1015.71 1016.15 1016.58 1017.01 1017.41 1017.77 1018.08 1018.33 1018.52 1018.66 1018.78 1018.89 1019.01 1019.15 1019.31 1019.51 1019.73 1019.97 1020.21 1020.45 1020.68 1020.89 1021.08 1021.23 1021.35 1021.43 1021.46 1021.44 1021.37 1021.25 1021.08 1020.88 1020.63 1020.35 1020.03
1012.64 1013.01 1013.40 1013.80 1014.20 1014.60 1015.00 1015.41 1015.83 1016.25 1016.68 1017.10 1017.50 1017.86 1018.18 1018.44 1018.64 1018.81 1018.94 1019.05 1019.16 1019.29 1019.43 1019.59 1019.77 1019.97 1020.17 1020.38 1020.59 1020.78 1020.97 1021.12 1021.25 1021.35 1021.40 1021.40 1021.37 1021.28 1021.16 1020.99 1020.79 1020.56 1020.28
1012.73 1013.10 1013.51 1013.92 1014.34 1014.75 1015.16 1015.56 1015.97 1016.39 1016.80 1017.21 1017.59 1017.95 1018.27 1018.53 1018.75 1018.93 1019.07 1019.19 1019.29 1019.39 1019.50 1019.63 1019.76 1019.91 1020.07 1020.25 1020.42 1020.60 1020.78 1020.94 1021.08 1021.19 1021.27 1021.30 1021.29 1021.24 1021.15 1021.03 1020.88 1020.70 1020.48
1012.86 1013.24 1013.65 1014.08 1014.50 1014.92 1015.33 1015.73 1016.12 1016.52 1016.91 1017.30 1017.67 1018.01 1018.32 1018.59 1018.82 1019.01 1019.15 1019.27 1019.37 1019.46 1019.54 1019.62 1019.72 1019.82 1019.94 1020.08 1020.24 1020.40 1020.58 1020.74 1020.90 1021.02 1021.12 1021.17 1021.18 1021.16 1021.10 1021.02 1020.92 1020.79 1020.64
1012.99 1013.37 1013.79 1014.22 1014.65 1015.07 1015.47 1015.86 1016.24 1016.61 1016.98 1017.34 1017.69 1018.02 1018.32 1018.59 1018.82 1019.02 1019.17 1019.30 1019.40 1019.47 1019.54 1019.60 1019.66 1019.74 1019.83 1019.94 1020.08 1020.24 1020.41 1020.58 1020.74 1020.88 1020.99 1021.06 1021.09 1021.08 1021.05 1020.99 1020.92 1020.85 1020.76
1013.10 1013.46 1013.87 1014.30 1014.73 1015.14 1015.54 1015.92 1016.28 1016.63 1016.98 1017.31 1017.64 1017.95 1018.24 1018.51 1018.75 1018.95 1019.12 1019.26 1019.37 1019.45 1019.51 1019.56 1019.61 1019.68 1019.76 1019.87 1020.00 1020.15 1020.32 1020.50 1020.67 1020.81 1020.93 1021.00 1021.04 1021.04 1021.01 1020.97 1020.92 1020.88 1020.84
1013.14 1013.47 1013.86 1014.27 1014.69 1015.10 1015.49 1015.86 1016.21 1016.55 1016.87 1017.19 1017.50 1017.80 1018.08 1018.35 1018.60 1018.81 1019.00 1019.16 1019.29 1019.39 1019.47 1019.54 1019.60 1019.67 1019.76 1019.87 1020.00 1020.16 1020.34 1020.52 1020.69 1020.84 1020.95 1021.02 1021.05 1021.05 1021.02 1020.98 1020.94 1020.91 1020.90
1013.07 1013.36 1013.71 1014.10 1014.50 1014.90 1015.28 1015.65 1016.00 1016.34 1016.66 1016.97 1017.27 1017.56 1017.84 1018.11 1018.37 1018.60 1018.82 1019.00 1019.16 1019.30 1019.41 1019.51 1019.60 1019.70 1019.81 1019.94 1020.09 1020.26 1020.44 1020.63 1020.80 1020.94 1021.05 1021.12 1021.14 1021.12 1021.08 1021.03 1020.98 1020.95 1020.94
1012.87 1013.10 1013.41 1013.76 1014.14 1014.53 1014.92 1015.30 1015.66 1016.00 1016.33 1016.64 1016.95 1017.24 1017.53 1017.81 1018.08 1018.33 1018.57 1018.79 1018.99 1019.17 1019.32 1019.47 1019.60 1019.74 1019.88 1020.04 1020.21 1020.40 1020.59 1020.78 1020.96 1021.10 1021.20 1021.26 1021.27 1021.24 1021.18 1021.11 1021.04 1020.99 1020.97
Thickness
5685 5685 5684 5683 5684 5683 5683 5683 5684 5685 5685 5685 5684 5685 5685 5686 5686 5685 5685 5682 5680 5680 5679 5678 5677 5676 5675 5673 5671 5668 5665 5662 5659 5655 5652 5648 5645 5642 5639 5636 5634 5631 5629
5681 5680 5680 5679 5679 5679 5679 5679 5680 5680 5681 5681 5681 5681 5681 5681 5682 5681 5681 5680 5678 5676 5675 5674 5674 5672 5671 5669 5667 5664 5661 5658 5655 5651 5648 5644 5641 5638 5635 5632 5629 5626 5624
5676 5676 5676 5675 5675 5674 5674 5675 5675 5675 5675 5675 5676 5677 5677 5677 5677 5677 5677 5676 5675 5673 5671 5670 5669 5668 5666 5664 5662 5659 5656 5653 5649 5646 5643 5639 5636 5633 5630 5627 5625 5622 5619
5671 5671 5671 5671 5671 5670 5669 5670 5671 5671 5671 5671 5672 5673 5672 5671 5672 5672 5671 5670 5670 5668 5667 5665 5663 5662 5660 5658 5656 5653 5650 5647 5643 5640 5637 5634 5631 5628 5626 5623 5620 5617 5614
5666 5666 5667 5667 5666 5665 5665 5665 5666 5667 5666 5665 5666 5666 5667 5667 5667 5665 5666 5664 5663 5661 5660 5658 5656 5655 5653 5651 5649 5646 5643 5640 5636 5633 5631 5628 5625 5623 5620 5618 5616 5613 5610
5661 5662 5662 5662 5662 5661 5661 5660 5660 5660 5660 5660 5659 5659 5660 5661 5660 5660 5659 5657 5655 5654 5653 5652 5650 5648 5645 5643 5640 5638 5635 5632 5629 5626 5623 5621 5619 5617 5614 5612 5610 5608 5605
5656 5657 5657 5657 5657 5657 5657 5656 5655 5654 5653 5653 5652 5652 5654 5654 5654 5652 5651 5650 5648 5646 5644 5643 5641 5639 5637 5633 5631 5628 5626 5623 5621 5618 5615 5613 5612 5610 5608 5607 5605 5602 5600
5651 5652 5653 5653 5652 5652 5651 5651 5649 5648 5646 5645 5646 5645 5645 5647 5645 5643 5642 5640 5639 5637 5635 5633 5631 5629 5627 5624 5621 5618 5616 5614 5612 5609 5607 5605 5603 5602 5601 5600 5598 5596 5595
5646 5647 5647 5648 5647 5647 5646 5645 5644 5642 5641 5639 5640 5639 5638 5640 5639 5637 5633 5631 5629 5628 5626 5623 5620 5618 5615 5613 5611 5608 5606 5604 5602 5600 5598 5597 5595 5594 5593 5592 5591 5589 5588
5641 5642 5642 5641 5641 5641 5640 5639 5638 5637 5635 5633 5631 5632 5633 5633 5629 5630 5627 5623 5620 5618 5616 5612 5610 5607 5604 5602 5599 5597 5595 5593 5592 5590 5589 5587 5586 5584 5584 5583 5582 5581 5580
5635 5635 5635 5636 5635 5634 5633 5631 5630 5629 5628 5627 5626 5624 5622 5621 5620 5619 5620 5618 5613 5609 5606 5603 5600 5597 5593 5591 5588 5585 5583 5582 5580 5579 5578 5576 5574 5573 5573 5572 5572 5572 5572
5628 5629 5628 5628 5627 5626 5625 5623 5621 5621 5620 5619 5618 5616 5615 5614 5612 5610 5609 5609 5606 5602 5596 5592 5589 5585 5581 5578 5575 5573 5571 5569 5568 5567 5566 5564 5562 5560 5560 5561 5561 5562 5562
5622 5622 5622 5621 5619 5618 5617 5615 5613 5612 5612 5611 5610 5608 5606 5605 5603 5601 5599 5598 5596 5593 5587 5582 5577 5573 5569 5566 5563 5560 5558 5556 5555 5554 5552 5550 5548 5547 5547 5548 5549 5550 5552
5617 5615 5614 5613 5612 5610 5609 5607 5605 5604 5602 5602 5601 5599 5597 5595 5592 5590 5588 5587 5585 5584 5580 5576 5567 5562 5558 5554 5550 5547 5545 5543 5541 5539 5538 5536 5535 5534 5534 5535 5537 5539 5540
5610 5609 5607 5606 5603 5603 5601 5599 5598 5596 5594 5593 5591 5589 5588 5585 5581 5579 5576 5574 5573 5575 5575 5569 5559 5551 5546 5542 5538 5535 5533 5529 5527 5526 5524 5522 5522 5522 5522 5523 5525 5527 5529
5603 5601 5599 5598 5595 5594 5592 5590 5589 5587 5585 5583 5581 5579 5577 5574 5570 5567 5565 5562 5560 5560 5562 5557 5549 5541 5535 5530 5526 5523 5520 5517 5515 5513 5511 5510 5509 5509 5510 5511 5513 5515 5518
5595 5593 5592 5589 5587 5585 5583 5582 5580 5578 5576 5573 5571 5569 5566 5563 5560 5556 5553 5550 5548 5546 5546 5544 5536 5530 5525 5520 5515 5511 5508 5505 5503 5501 5500 5498 5498 5498 5498 5499 5501 5503 5506
5585 5584 5583 5581 5579 5577 5575 5574 5571 5568 5566 5564 5561 5558 5555 5552 5549 5546 5543 5540 5537 5534 5533 5532 5526 5519 5514 5509 5505 5500 5496 5493 5492 5489 5488 5487 5487 5487 5487 5488 5489 5492 5495
5574 5573 5572 5571 5569 5567 5565 5563 5561 5558 5556 5553 5551 5548 5545 5542 5539 5536 5532 5529 5526 5522 5519 5519 5515 5508 5502 5497 5493 5489 5485 5483 5480 5479 5478 5476 5476 5476 5476 5478 5479 5481 5484
5563 5562 5561 5559 5557 5555 5553 5551 5550 5547 5545 5542 5540 5537 5535 5532 5529 5525 5522 5518 5515 5512 5510 5507 5504 5498 5493 5487 5484 5481 5477 5473 5471 5469 5467 5466 5466 5465 5466 5467 5469 5471 5473
5550 5549 5547 5545 5544 5542 5541 5540 5538 5536 5533 5531 5528 5525 5522 5519 5516 5514 5511 5508 5504 5503 5500 5497 5494 5489 5484 5479 5477 5473 5470 5465 5462 5460 5460 5459 5458 5458 5458 5458 5460 5462 5464
5536 5535 5534 5533 5532 5531 5529 5527 5526 5524 5522 5519 5516 5513 5510 5507 5504 5501 5498 5495 5493 5492 5490 5487 5485 5481 5477 5472 5467 5463 5461 5459 5458 5452 5453 5452 5450 5450 5449 5450 5451 5453 5455
5522 5522 5522 5521 5520 5519 5516 5515 5512 5512 5510 5507 5504 5502 5499 5496 5492 5490 5487 5483 5480 5477 5476 5476 5475 5473 5468 5464 5459 5455 5453 5452 5451 5446 5444 5447 5444 5443 5441 5441 5443 5444 5446
5509 5509 5509 5509 5508 5506 5504 5502 5500 5498 5497 5494 5492 5491 5488 5485 5482 5479 5477 5474 5470 5467 5465 5462 5462 5459 5456 5452 5449 5447 5444 5441 5438 5435 5434 5439 5438 5437 5434 5435 5434 5436 5437
5495 5495 5495 5495 5494 5493 5492 5490 5488 5486 5484 5483 5481 5479 5477 5475 5472 5468 5466 5462 5460 5457 5453 5451 5448 5446 5443 5441 5438 5437 5434 5434 5435 5432 5428 5430 5430 5429 5429 5429 5427 5427 5428
5480 5480 5480 5480 5481 5481 5480 5479 5477 5476 5473 5472 5469 5468 5466 5465 5462 5459 5456 5454 5452 5449 5445 5441 5439 5436 5434 5431 5428 5428 5427 5425 5427 5426 5422 5421 5422 5421 5422 5422 5421 5420 5421